Flag for United Arab Emirates Weather past 2 weeks in Fujairah, Fujairah, United Arab Emirates

Now
93 °F

Scattered clouds.


Feels Like: 117 °F
Forecast: 90 / 103 °F
Wind: 10 mph from Southeast

Location: Fujairah

Current Time: Jul 23, 2014 at 12:22:29 PM

Latest Report: Jul 23, 2014 at 10:00 AM


Visibility: 3 mi

Pressure: 29.47 "Hg

Humidity: 71%

Dew point: 82 °F

Location of FujairahLocation

Historic Weather in Fujairah — Graph

°F

Fujairah temperature yesterday

Maximum temperature yesterday: 95 °F (at 12:00 PM)
Minimum temperature yesterday: 90 °F (at 12:00 AM)
Average temperature yesterday: 91 °F

Past Weeks' High & Low Weather Summary

 TemperatureHumidityPressure
High109 °F (Jul 16, 8:00 PM)89% (Jul 14, 1:00 AM)29.56 "Hg (Jul 14, 1:00 AM)
Low88 °F (Jul 9, 4:00 AM)24% (Jul 17, 9:00 PM)29.36 "Hg (Jul 16, 4:00 PM)
Average93 °F69%29.45 "Hg
* Reported Jul 8 10:00 AM — Jul 23 10:00 AM, Fujairah, Weather by CustomWeather, © 2014

Note: Actual official high and low records may vary slightly from our data, if they occured in-between our weather recording intervals... More about our weather records

Advertising

Fujairah weather history for previous 24 hours

 ConditionsComfort  
Time TempWeatherWind HumidityBarometerVisibility
10:00 AM
Jul 23
93 °FScattered clouds.10 mph71%29.47 "Hg3 mi
9:00 AM91 °FScattered clouds.9 mph75%29.50 "Hg4 mi
8:00 AM91 °FScattered clouds.6 mph75%29.47 "Hg3 mi
7:00 AM90 °FHaze.2 mph79%29.47 "Hg3 mi
6:00 AM88 °FHaze.1 mph84%29.47 "Hg3 mi
5:00 AM88 °FHaze.2 mph84%29.45 "Hg3 mi
4:00 AM88 °FPassing clouds.3 mph84%29.45 "Hg2 mi
9:00 PM
Jul 22
90 °FHaze.6 mph79%29.45 "Hg3 mi
8:00 PM90 °FHaze.8 mph79%29.45 "Hg3 mi
7:00 PM91 °FHaze.8 mph75%29.42 "Hg3 mi
6:00 PM91 °FHaze.7 mph75%29.42 "Hg3 mi
5:00 PM93 °FClear.8 mph71%29.42 "Hg4 mi
4:00 PM93 °FClear.9 mph71%29.42 "Hg4 mi
3:00 PM95 °FClear.12 mph63%29.45 "Hg4 mi
2:00 PM95 °FPassing clouds.12 mph63%29.45 "Hg4 mi
1:00 PM93 °FPassing clouds.12 mph67%29.47 "Hg4 mi
12:00 PM95 °FPassing clouds.12 mph63%29.50 "Hg4 mi
Weather by CustomWeather, © 2014

See weather overviewHow to use our weather pages